This demonstration page uses our WeatherBlox Daily Observations layout. Learn more.

Left ArrowRight Arrow

36.17497, -115.13722

Hourly Observations for August 6, 2019

Temp ( °F °C ) Dew Point ( °F °C ) Humidity (%) Winds ( mph kmh ) Pressure ( in mb ) Visibility ( mi km ) Precip ( " mm )
12:53 am 00:53 Clear 93 33.9 34 1.1 12 12 N 6 9 29.79 1009 10 16 0.00 0.00
1:53 am 01:53 Clear 93 33.9 35 1.7 13 13 WNW 5 7 29.79 1009 10 16 0.00 0.00
2:53 am 02:53 Clear 92 33.3 38 3.3 15 15 Calm 29.78 1009 10 16 0.00 0.00
3:53 am 03:53 Clear 90 32.2 36 2.2 15 15 NW 3 6 29.80 1009 10 16 0.00 0.00
4:53 am 04:53 Clear 88 31.1 39 3.9 18 18 Calm 29.80 1009 10 16 0.00 0.00
5:53 am 05:53 Sunny 88 31.1 40 4.4 18 18 Calm 29.82 1010 10 16 0.00 0.00
6:53 am 06:53 Sunny 90 32.2 38 3.3 16 16 Calm 29.84 1011 10 16 0.00 0.00
7:53 am 07:53 Sunny 90 32.2 35 1.7 14 14 NNE 3 6 29.86 1011 10 16 0.00 0.00
8:53 am 08:53 Sunny 92 33.3 38 3.3 15 15 N 3 6 29.87 1012 10 16 0.00 0.00
9:53 am 09:53 Sunny 94 34.4 40 4.4 15 15 Calm 29.88 1012 10 16 0.00 0.00
10:53 am 10:53 Sunny 97 36.1 39 3.9 13 13 SSE 7 11 29.88 1012 10 16 0.00 0.00
11:53 am 11:53 Sunny 100 37.8 37 2.8 11 11 SE 6 9 29.87 1012 10 16 0.00 0.00
12:53 pm 12:53 Sunny 103 39.4 37 2.8 10 10 SE 3 6 29.85 1011 10 16 0.00 0.00
1:53 pm 13:53 Sunny 104 40 37 2.8 10 10 WSW 8 13 29.83 1010 10 16 0.00 0.00
2:53 pm 14:53 Sunny 107 41.7 39 3.9 10 10 WSW 18 30 29.81 1009 10 16 0.00 0.00
3:53 pm 15:53 Sunny 102 38.9 37 2.8 10 10 W 20 31 29.80 1009 10 16 0.00 0.00
4:53 pm 16:53 Sunny 100 37.8 41 5 13 13 W 18 30 29.80 1009 10 16 0.00 0.00
5:31 pm 17:31 Sunny 99 37.2 42 5.6 14 14 NNW 10 17 29.68 1005 10 16 0.00 0.00
5:53 pm 17:53 Mostly Cloudy with Light Rain 97 36.1 47 8.3 18 18 NNE 13 20 29.85 1011 10 16 0.00 0.00
6:53 pm 18:53 Sunny 97 36.1 43 6.1 16 16 Calm 29.84 1011 10 16 0.00 0.00
7:53 pm 19:53 Clear 95 35 47 8.3 19 19 NW 12 19 29.85 1011 10 16 0.00 0.00
8:53 pm 20:53 Clear 94 34.4 47 8.3 20 20 NNW 6 9 29.87 1011 10 16 0.00 0.00
9:53 pm 21:53 Clear 93 33.9 47 8.3 21 21 WNW 3 6 29.87 1012 10 16 0.00 0.00
10:53 pm 22:53 Clear 91 32.8 48 8.9 23 23 Calm 29.86 1011 10 16 0.00 0.00
11:53 pm 23:53 Clear 89 31.7 48 8.9 24 24 SW 5 7 29.86 1011 10 16 0.00 0.00

Powered by AerisWeather